Regional Weather Roundup
Issued by NWS Cleveland, OH

Home | Current Version | Previous Version | Graphics & Text | Print | Product List | Glossary On
Versions: 1 2 3 4 5 6 7 8 9 10 11 12 13 14 15 16 17 18 19 20 21 22 23 24 25 26 27 28 29 30 31 32 33 34 35 36 37 38 39 40 41 42 43 44 45 46 47 48 49 50
000
ASUS41 KCLE 171210
RWRCLE
OHIO REGIONAL WEATHER ROUNDUP
NATIONAL WEATHER SERVICE CLEVELAND, OH
800 AM EDT WED SEP 17 2014

NOTE: "FAIR" INDICATES FEW OR NO CLOUDS BELOW 12,000 FEET WITH NO
SIGNIFICANT WEATHER AND/OR OBSTRUCTIONS TO VISIBILITY.

OHZ001>008-015>018-024>027-034-035-043-044-171300-
   NORTHWEST OHIO

CITY           SKY/WX    TMP DP  RH WIND       PRES   REMARKS
DEFIANCE       CLEAR     42  40  92 CALM      30.09R FOG
FINDLAY        CLEAR     44  42  93 S3        30.07S
TOLEDO EXPRESS CLEAR     42  41  96 CALM      30.07S
TOLEDO EXEC    CLEAR     45  42  89 CALM      30.08S
LIMA           CLEAR     46  44  93 S5        30.08S FOG
$$

OHZ009>014-019>023-028>033-038-089-171300-
   NORTHEAST OHIO

CITY           SKY/WX    TMP DP  RH WIND       PRES   REMARKS
CLE-HOPKINS    PTCLDY    46  45  96 S3        30.10R FOG
CLE-LAKEFRONT  CLEAR     51  46  83 S12       30.07R
CUY CO. ARPT   PTCLDY    52  48  87 S9        30.08R
LORAIN-ELYRIA  CLEAR     49  44  83 SW5       30.08S
ASHTABULA      CLEAR     47  45  93 S3        30.08R
AKRON-CANTON   MOCLDY    51  47  86 S3        30.08R FOG
WOOSTER        CLOUDY    47  45  93 CALM      30.10R FOG
MANSFIELD      CLOUDY    50  48  93 CALM      30.08S
YOUNGSTOWN     PTCLDY    45  44  97 CALM      30.08R
$$

OHZ042-051>053-060>062-070>072-077>081-171300-
  SOUTHWEST OHIO

CITY           SKY/WX    TMP DP  RH WIND       PRES   REMARKS
CINC-COVINGTON CLOUDY    53  50  89 NW5       30.09R FOG
CINC-LUNKEN    CLOUDY    52  50  93 CALM      30.10R
HAMILTON       CLOUDY    51  51 100 CALM      30.10R FOG
DAYTON         CLOUDY    49  47  93 CALM      30.10R FOG
WRIGHT-PAT AFB CLOUDY    49  48  99 SW2       30.09R FOG
DAYTON GENERAL CLOUDY    52  50  93 CALM      30.08R FOG
WILMINGTON     CLOUDY    51  49  92 CALM      30.08R
$$

OHZ036-037-039>041-045>050-054>059-063>069-073>076-082>088-171300-
  CENTRAL AND SOUTHEAST OHIO

CITY           SKY/WX    TMP DP  RH WIND       PRES   REMARKS
COLUMBUS       CLOUDY    54  48  80 N3        30.07S
OSU AIRPORT    MOCLDY    49  47  93 CALM      30.08S
BOLTON FIELD   MOCLDY    48  48 100 CALM      30.08S
RICKENBACK AFB CLOUDY    48  47  97 CALM      30.07S FOG
NEWARK         MOCLDY    50  48  93 CALM      30.07S FOG
MARION         MOCLDY    47  45  93 CALM      30.08S FOG
LANCASTER      MOCLDY    50  48  93 CALM      30.07S FOG
ZANESVILLE     CLEAR     47  44  90 CALM      30.07S
NEW PHILLY     FOG       49  48  97 CALM      30.09R VSB<1/4
$$


USA.gov is the U.S. government's official web portal to all federal, state and local government web resources and services.